Flag for Austria Weather past 2 weeks in Lustenau, Vorarlberg, Austria

Now
55 °F

Passing clouds.


Feels Like: 54 °F
Forecast: 42 / 65 °F
Wind: 7 mph from Northwest

Location: Saint Gallen-Altenrhein

Current Time: Sep 22, 2014 at 8:38:35 AM

Latest Report: Sep 22, 2014 at 7:50 AM


Visibility: N/A

Pressure: 30.12 "Hg

Humidity: 82%

Dew point: 50 °F

Location of LustenauLocation

Historic Weather in Lustenau — Graph

°F

Lustenau temperature yesterday

Maximum temperature yesterday: 68 °F (at 12:50 PM)
Minimum temperature yesterday: 57 °F (at 11:20 PM)
Average temperature yesterday: 62 °F

Past Weeks' High & Low Weather Summary

 TemperatureHumidityPressure
High77 °F (Sep 7, 5:50 PM)100% (Sep 8, 6:20 AM)30.15 "Hg (Sep 8, 6:20 AM)
Low52 °F (Sep 12, 6:20 AM)44% (Sep 7, 5:50 PM)29.86 "Hg (Sep 17, 5:20 PM)
Average61 °F85%30.01 "Hg
* Reported Sep 7 7:20 AM — Sep 22 7:20 AM, Lustenau, Weather by CustomWeather, © 2014

Note: Actual official high and low records may vary slightly from our data, if they occured in-between our weather recording intervals... More about our weather records

Advertising

Lustenau weather history for previous 24 hours

 ConditionsComfort  
Time TempWeatherWind HumidityBarometerVisibility
7:20 AM
Sep 22
55 °FSprinkles. Passing clouds.7 mph77%30.12 "HgN/A
6:50 AM55 °FPassing clouds.8 mph88%30.09 "HgN/A
6:20 AM54 °FPassing clouds.2 mph100%30.09 "HgN/A
5:50 AM54 °FPartly cloudy.2 mph100%30.09 "HgN/A
5:20 AM54 °FPartly cloudy.2 mph100%30.09 "HgN/A
4:50 AM54 °FSprinkles. Partly cloudy.5 mph100%30.09 "HgN/A
4:20 AM55 °FPartly cloudy.3 mph94%30.09 "HgN/A
3:50 AM54 °FLight rain. Passing clouds.3 mph100%30.09 "HgN/A
3:20 AM54 °FHeavy rain. Fog.2 mph94%30.09 "Hg2 mi
2:50 AM54 °FLight rain. Partly cloudy.3 mph100%30.09 "HgN/A
2:20 AM55 °FHeavy rain. Fog.2 mph94%30.09 "Hg1 mi
1:50 AM55 °FLight rain. Partly cloudy.2 mph100%30.09 "HgN/A
1:20 AM55 °FLight rain. Partly cloudy.3 mph100%30.09 "HgN/A
12:50 AM55 °FRain. Partly cloudy.2 mph100%30.09 "Hg4 mi
12:20 AM57 °FLight rain. Partly cloudy.6 mph88%30.09 "Hg6 mi
11:50 PM
Sep 21
57 °FLight rain. Passing clouds.8 mph88%30.07 "HgN/A
11:20 PM57 °FLight rain. Passing clouds.6 mph94%30.07 "HgN/A
10:20 PM61 °FSprinkles. Passing clouds.12 mph83%30.04 "HgN/A
9:50 PM59 °FLight rain. Passing clouds.8 mph88%30.04 "HgN/A
9:20 PM59 °FLight rain. Passing clouds.2 mph94%30.01 "HgN/A
8:50 PM59 °FSprinkles. Partly cloudy.2 mph94%30.01 "HgN/A
8:20 PM61 °FBroken clouds.1 mph88%30.01 "HgN/A
7:50 PM61 °FLight rain. Broken clouds.5 mph83%30.01 "HgN/A
7:20 PM61 °FPartly sunny.3 mph88%30.01 "HgN/A
6:50 PM61 °FBroken clouds.5 mph94%30.01 "HgN/A
6:20 PM61 °FSprinkles. Partly sunny.2 mph94%30.01 "HgN/A
5:50 PM64 °FSprinkles. Broken clouds.7 mph78%30.01 "HgN/A
5:20 PM64 °FBroken clouds.6 mph73%30.01 "HgN/A
4:20 PM63 °FSprinkles. Broken clouds.9 mph77%30.01 "Hg5 mi
3:50 PM61 °FThundershowers. Broken clouds.10 mph83%30.01 "Hg4 mi
3:20 PM64 °FThundershowers. Partly sunny.15 mph78%29.98 "Hg4 mi
2:50 PM66 °FScattered clouds.6 mph73%29.98 "HgN/A
2:20 PM68 °FScattered clouds.2 mph64%29.98 "HgN/A
1:50 PM68 °FScattered clouds.3 mph73%30.01 "HgN/A
1:20 PM68 °FScattered clouds.3 mph69%30.04 "HgN/A
12:50 PM68 °FScattered clouds.6 mph64%30.04 "HgN/A
12:20 PM66 °FPartly sunny.5 mph78%30.04 "HgN/A
11:50 AM66 °FPartly sunny.6 mph73%30.04 "HgN/A
11:20 AM64 °FPartly sunny.2 mph78%30.04 "HgN/A
10:50 AM64 °FBroken clouds.3 mph83%30.04 "HgN/A
10:20 AM64 °FBroken clouds.3 mph78%30.04 "HgN/A
9:50 AM63 °FBroken clouds.2 mph83%30.04 "HgN/A
9:20 AM61 °FBroken clouds.5 mph94%30.04 "HgN/A
8:50 AM61 °FMore clouds than sun.6 mph88%30.04 "HgN/A
8:20 AM61 °FSprinkles. Broken clouds.1 mph94%30.04 "HgN/A
Weather by CustomWeather, © 2014

See weather overviewHow to use our weather pages